Погода в Якуньёле

Россия / Республика Коми     59°22′43″N   49°46′43″E
темп.,
°C
ветер,
м/с
пор.,
м/с
влажн.,
%
обл.,
%
осадки,
мм/ч
давл.,
гПа
погр.,
м
22 апреля, чт
чт2200:00+2ююв61596100 2.4 1019754
03:00+2ююв51396100 2.7 1019728
06:00+2ююв51396100 0.1 1017826
09:00+3ю51295100 0.3 1018787
12:00+4ю41093100 0.0 1019812
15:00+7ююз497690 0.1 10201157
18:00+6ююв5108263 0.1 1020758
21:00+5ю41092100 0.4 10201002
23 апреля, пт
пт2300:00+5юз399127 0.3 1021492
03:00+4ю3890100 0.3 1022229
06:00+5ю398658 0.0 1023309
09:00+9ююз476569 0.0 1023836
12:00+11ююз455992 0.0 10241027
15:00+12ю345579 0.1 10231201
18:00+10ююв37648 0.0 1023468
21:00+7юв227915 0.0 102330
24 апреля, сб
сб2400:00+5юв259436 0.0 1023109
03:00+6вюв279295 0.0 1021195
06:00+6юв41086100 0.0 1021399
09:00+8вюв486870 0.0 1020720
12:00+11вюв5652100 0.1 10171723
15:00+10вюв5759100 0.1 10161397
18:00+8вюв4869100 0.0 1014991
21:00+6вюв4886100 0.1 1012934
25 апреля, вс
вс2500:00+5вюв4894100 0.5 10101021
03:00+5вюв4995100 1.1 10081080
06:00+5вюв5996100 1.0 1006974
09:00+4вюв51096100 1.9 1004900
12:00+4вюв4996100 0.9 1003931
15:00+4ююв3697100 2.9 1003832
18:00+4юз4982100 1.4 1004948
21:00+2ююз4108627 1.4 1004608
26 апреля, пн
пн2600:00+2ююз5118798 0.1 1004953
03:00+1ююз51397100 0.4 1004906
06:00+1ююз61496100 1.6 1004897
09:00+1ююз61496100 3.1 1004967
12:00+2юз71596100 2.4 10051220
15:00+3зюз71591100 4.2 10071290
18:00+4зюз61478100 0.4 10071398
21:00+3юз51378100 0.4 1007895